Retour au catalogue

ONEWEB-0159

ActifCommunicationsPO
NORAD 48062·PAYLOAD·🇬🇧 United Kingdom

Lancé Mar 25, 2021 depuis Vostochny Cosmodrome

Loading…

Prochains Passages (prochaines 24 heures)

TLE

FraisSource: CelesTrak SupGP

Époque: Sep 14, 2026, 15:28 UTC

1 48062C 21025W   26257.64494630 -.00000826  00000+0 -22649-2 0  2577
2 48062  87.8927 302.4245 0001665  95.1107   6.6271 13.13472475    14

Suivez ONEWEB-0159 en temps réel avec AllMySat

Download on the App Store